Regional Weather Roundup
Issued by NWS Charleston, WV

Home | Current Version | Previous Version | Graphics & Text | Print | Product List | Glossary On
Versions: 1 2 3 4 5 6 7 8 9 10 11 12 13 14 15 16 17 18 19 20 21 22 23 24 25 26 27 28 29 30 31 32 33 34 35 36 37 38 39 40 41 42 43 44 45 46 47 48 49 50
000
ASUS41 KRLX 011210
RWRRLX
West Virginia Regional Weather Roundup
National Weather Service Charleston WV
800 AM EDT WED JUL 01 2015

Note: "fair" indicates few or no clouds below 12,000 feet with no
significant weather and/or obstructions to visibility.

WVZ003-011300-
Northern Panhandle of West Virginia

CITY           SKY/WX    TMP DP  RH WIND       PRES   REMARKS
WHEELING       CLOUDY    62  60  93 SW7       29.89S FOG
$$

WVZ009-011300-
Northwest West Virginia

CITY           SKY/WX    TMP DP  RH WIND       PRES   REMARKS
PARKERSBURG    PTSUNNY   63  60  90 CALM      29.94R FOG
$$

WVZ006-011300-
Western West Virginia

CITY           SKY/WX    TMP DP  RH WIND       PRES   REMARKS
HUNTINGTON     CLOUDY    61  60  97 CALM      29.92S
$$

WVZ015-011300-
West Central West Virginia

CITY           SKY/WX    TMP DP  RH WIND       PRES   REMARKS
CHARLESTON     CLOUDY    61  60  97 CALM      29.93S
$$

WVZ022-031-011300-
North Central West Virginia

CITY           SKY/WX    TMP DP  RH WIND       PRES   REMARKS
CLARKSBURG     CLOUDY    63  59  87 S7        29.93R
MORGANTOWN     CLOUDY    63  57  81 S6        29.92S
$$

WVZ025-035-042-045-011300-
Southern West Virginia

CITY           SKY/WX    TMP DP  RH WIND       PRES   REMARKS
BECKLEY        CLOUDY    61  57  87 SW6       30.02R
LOGAN            N/A     63  61  94 CALM      29.93F FOG
BLUEFIELD      CLOUDY    63  58  83 W6        30.04R
LEWISBURG      SUNNY     61  59  94 S3        30.00S
$$

WVZ047-011300-
Northern Mountains of West Virginia

CITY           SKY/WX    TMP DP  RH WIND       PRES   REMARKS
ELKINS         CLOUDY    62  56  80 SE3       29.98R
$$

WVZ052-011300-
Eastern Panhandle of West Virginia

CITY           SKY/WX    TMP DP  RH WIND       PRES   REMARKS
MARTINSBURG    SUNNY     70  60  70 S7        29.87S
PETERSBURG     CLOUDY    64  57  78 CALM      29.91R
$$


USA.gov is the U.S. government's official web portal to all federal, state and local government web resources and services.